Temperature
13 12 12 12 11 11 11 10 10 10 10 10 10 10 10 10 10 10 11 11 11 11 11 11 11 12 12 12 12 12 12 13 14 14 15 15 15 16 16 16 16 16 16
12 12 11 11 10 10 10 10 10 9 9 9 9 9 9 10 10 10 10 10 10 10 11 11 11 11 11 12 12 12 12 12 13 14 14 14 15 15 15 15 15 15 15
12 11 11 10 10 10 9 9 9 9 9 9 9 9 9 9 9 9 9 9 10 10 10 10 11 11 11 11 11 11 11 12 12 13 13 14 14 14 14 14 15 15 15
11 10 10 10 9 9 9 9 9 9 8 8 8 8 8 8 8 9 9 9 9 9 10 10 10 10 11 11 11 11 11 11 11 12 12 13 13 13 14 14 14 14 14
10 10 10 9 9 9 9 8 8 8 8 8 8 8 8 8 8 8 8 8 8 9 9 9 10 10 10 10 10 11 11 11 11 11 12 12 12 12 13 13 14 13 13
10 9 9 9 9 8 8 8 8 8 8 8 8 8 8 7 7 7 7 7 8 8 8 9 9 9 10 10 10 10 10 10 10 11 11 11 12 12 13 13 13 13 12
9 9 9 8 8 8 8 8 8 8 8 8 8 7 7 7 7 7 7 7 7 7 8 8 8 9 9 9 10 10 10 10 10 10 11 11 11 12 12 12 13 13 14
9 9 9 8 8 8 8 8 8 8 7 7 7 7 7 7 7 7 7 7 7 7 7 7 8 8 9 9 9 9 10 10 10 10 10 11 11 11 11 12 13 13 13
9 9 8 8 8 8 8 8 8 7 7 8 7 7 7 7 7 7 7 6 6 7 7 7 7 8 8 9 9 9 9 9 10 10 10 10 10 11 11 11 11 12 12
9 8 8 8 8 8 8 8 8 8 7 7 7 7 7 7 7 7 6 6 6 6 7 7 7 7 8 8 8 9 9 9 9 9 9 10 10 10 10 11 11 11 12
9 8 8 8 8 8 8 8 8 8 7 7 7 7 7 7 7 7 7 6 6 6 6 7 7 7 7 8 8 8 9 9 9 9 9 9 10 10 10 10 11 11 12
9 8 8 8 8 8 8 8 8 7 7 7 7 7 7 7 7 7 7 7 6 6 6 7 7 7 7 8 8 8 8 9 9 9 9 9 9 10 10 10 10 11 11
9 8 8 8 8 8 8 8 8 8 7 7 7 7 7 7 7 7 7 7 6 6 6 6 7 7 7 8 8 8 8 8 8 9 9 9 9 10 10 10 10 10 11
9 8 8 8 8 8 8 8 8 8 7 7 7 7 7 7 6 6 6 6 6 6 6 6 6 7 7 7 8 8 8 8 8 9 9 9 9 9 9 10 10 10 10
9 9 8 8 8 8 8 8 8 8 7 7 7 7 7 7 6 6 6 6 6 6 6 6 6 7 7 7 8 8 8 8 8 9 9 9 9 9 9 9 10 10 10
9 9 8 8 8 8 8 9 9 8 8 8 7 7 7 6 6 6 6 6 6 6 6 6 7 7 7 8 8 8 8 8 9 9 9 9 9 9 9 9 9 9 10
9 9 8 8 8 8 8 8 9 9 8 8 8 7 7 7 6 6 6 6 6 6 6 6 7 7 7 8 8 8 8 9 9 9 9 9 9 9 9 9 9 9 9
9 9 9 8 8 9 9 9 8 8 8 8 8 7 7 7 7 6 6 6 6 6 6 6 7 7 7 8 8 8 8 8 8 9 9 9 9 9 9 9 9 9 9
9 9 9 9 9 9 9 9 9 9 8 8 8 8 8 7 7 7 6 6 6 6 6 6 7 7 7 7 8 8 8 8 8 8 9 9 9 9 9 9 9 9 9
9 9 9 9 9 9 9 9 9 9 9 8 8 8 8 7 7 7 7 7 7 7 7 7 7 7 7 8 8 8 8 8 8 8 9 9 9 9 9 9 9 9 9
9 9 9 9 9 9 10 9 9 9 9 9 8 8 8 8 7 7 7 7 7 7 7 7 7 7 7 8 8 8 8 8 8 9 9 9 9 9 9 9 9 9 9
9 9 9 10 10 10 10 10 10 9 9 9 9 8 8 8 8 8 7 7 7 7 7 7 7 7 7 8 8 8 8 8 9 9 9 9 9 9 9 9 9 9 9
9 9 9 10 10 10 10 10 10 10 9 9 9 9 8 8 8 8 8 7 7 7 7 7 7 7 7 8 8 8 8 8 9 9 9 9 9 9 9 9 9 9 9
9 9 9 10 10 10 10 10 10 10 10 9 9 9 8 8 8 8 7 7 7 7 7 7 7 7 8 8 8 8 8 8 8 8 9 9 9 9 9 9 9 9 9
9 9 9 9 10 10 10 10 10 10 10 10 9 9 9 8 8 8 8 7 7 7 7 7 7 7 7 8 8 8 8 8 8 8 8 9 9 9 9 8 8 9 9
9 9 9 9 10 10 10 10 10 10 10 10 9 9 9 9 8 8 8 8 8 8 7 7 7 7 7 8 8 8 8 8 8 8 8 8 8 8 8 8 8 9 9
Wind_Speed
1 1 1 2 3 3 4 5 5 5 6 6 6 6 7 7 6 6 7 8 8 8 7 7 7 5 4 4 3 3 2 3 4 2 1 2 3 7 6 8 10 9 9
2 2 3 4 4 5 6 6 6 6 7 7 7 7 7 7 7 7 8 8 9 10 9 8 8 6 6 5 4 4 4 4 4 4 2 2 3 8 8 8 7 8 8
3 3 4 5 6 7 7 7 7 7 7 7 7 7 8 8 8 8 8 9 9 10 10 10 10 8 8 6 6 5 5 4 3 3 3 3 2 6 7 6 7 6 6
4 5 6 7 7 8 7 7 7 7 8 8 8 8 8 9 8 9 9 9 9 10 10 11 11 11 10 9 7 7 6 5 4 4 4 4 4 5 7 8 6 4 5
5 6 7 8 7 7 7 8 8 8 9 8 8 9 9 8 9 9 9 9 9 9 10 10 12 14 15 12 8 7 7 6 4 5 5 5 5 7 8 6 7 7 4
6 7 7 7 7 7 8 8 8 8 9 8 9 9 10 10 12 13 10 8 8 8 9 9 11 14 16 17 15 13 12 9 8 6 5 6 7 6 5 8 8 7 5
6 7 7 7 7 8 9 8 9 9 9 9 9 9 10 12 15 16 16 10 9 9 9 8 10 11 13 11 13 14 14 14 13 9 7 7 7 8 9 10 10 9 5
7 7 7 7 8 8 9 9 9 9 9 9 10 10 10 12 15 16 16 11 9 10 10 10 10 9 10 11 10 9 8 9 11 9 8 8 7 7 10 10 9 7 5
7 8 8 8 9 9 10 10 10 9 10 10 9 10 10 12 14 15 14 7 8 10 10 10 11 10 12 14 11 9 8 7 10 12 11 10 9 10 9 8 10 10 7
8 8 8 8 9 10 11 11 9 9 10 10 10 9 10 11 13 15 13 6 8 8 8 9 13 13 13 15 11 10 9 8 7 8 8 7 7 8 10 9 10 11 7
8 8 9 9 9 10 10 9 10 9 9 9 10 9 9 10 11 13 12 7 8 7 7 7 7 12 14 15 13 10 11 9 7 7 7 6 5 5 6 6 7 8 8
7 8 9 10 9 10 9 10 10 9 9 9 8 8 7 7 9 10 11 11 10 7 7 6 7 12 13 14 12 12 13 10 5 5 5 5 5 6 6 7 8 7 5
7 9 9 10 9 9 9 10 9 7 7 7 6 7 7 6 6 9 9 10 10 7 6 8 9 11 11 10 13 14 11 7 6 5 5 6 6 7 6 6 6 6 4
8 9 9 9 10 10 8 7 7 7 7 7 6 6 6 5 4 3 3 3 5 6 5 5 7 8 7 8 8 8 7 8 7 6 6 5 4 5 5 5 6 7 6
8 8 9 8 9 9 9 7 8 7 7 7 6 6 5 6 5 6 3 3 3 4 3 2 3 3 5 5 5 6 6 6 7 5 5 5 4 4 5 5 5 6 6
7 8 7 8 8 8 9 10 10 9 11 11 11 8 6 7 7 6 5 6 7 6 4 3 4 5 6 6 6 6 6 7 7 6 6 6 5 5 5 5 6 7 8
8 9 8 8 8 8 8 8 9 9 9 8 9 9 9 7 6 4 4 3 4 6 3 4 4 5 6 6 6 6 6 7 7 7 6 6 6 5 5 6 7 7 7
8 9 9 8 8 8 8 7 7 7 8 6 6 7 8 7 6 5 3 2 2 3 4 5 5 5 6 6 6 6 6 6 6 6 6 6 7 6 6 6 7 8 8
8 7 7 8 8 8 7 7 6 7 6 6 5 5 5 5 5 5 4 3 4 5 5 5 5 5 6 6 7 7 7 6 6 7 7 8 7 6 6 6 7 10 9
7 12 11 8 8 8 7 6 6 6 6 6 5 5 2 1 2 3 4 5 5 5 5 6 6 7 7 7 7 7 6 6 7 7 8 8 8 8 8 8 8 8 9
6 9 13 10 7 7 7 6 6 5 5 5 5 5 4 4 5 5 5 5 6 6 6 6 6 6 6 6 6 7 8 7 7 8 8 8 8 8 7 8 8 8 8
6 7 7 8 8 7 7 6 6 5 6 6 5 5 5 4 4 4 4 4 5 5 5 5 5 5 6 6 7 7 7 7 7 7 8 8 8 8 8 8 8 8 9
6 7 8 7 7 8 8 6 6 5 6 5 5 4 3 3 4 3 3 2 2 3 4 4 4 4 5 5 6 6 7 7 7 8 8 8 8 8 8 8 10 11 11
6 7 7 7 7 6 6 6 6 6 6 5 5 4 3 3 4 3 3 3 2 1 2 2 3 4 6 4 4 4 5 6 6 7 10 9 9 9 8 9 10 12 12
6 6 6 6 6 6 6 6 6 6 6 5 5 4 3 3 3 3 3 3 3 2 1 0 1 2 4 5 5 4 6 7 6 6 7 8 9 10 9 10 9 11 11
5 6 6 6 6 6 6 5 5 6 6 5 5 4 4 3 3 3 2 2 2 2 2 2 2 2 3 4 5 6 6 6 7 7 7 7 8 9 10 9 11 11 12
Wind_Direction
294 280 294 285 281 283 279 276 275 274 278 277 274 275 273 267 257 244 241 242 237 236 230 224 229 220 212 208 203 202 210 197 215 241 235 148 137 145 137 128 130 128 131
267 267 274 277 282 283 278 274 271 272 273 269 267 267 267 269 260 249 247 247 237 237 232 225 228 223 213 206 201 207 212 211 202 214 210 180 166 161 152 144 138 130 129
277 278 286 287 284 280 276 273 272 270 272 270 266 262 262 262 258 252 244 243 238 235 230 224 225 215 215 208 200 203 209 216 210 199 205 198 174 160 151 144 132 123 128
287 286 285 281 276 274 273 273 271 268 269 268 264 259 257 257 255 253 249 244 241 238 233 226 222 215 214 207 205 202 199 202 203 201 198 192 184 170 160 155 148 141 136
291 288 282 280 278 278 278 276 274 272 276 269 266 263 259 258 259 253 247 251 243 241 238 231 225 220 216 208 204 198 193 195 198 202 199 188 186 178 178 166 158 145 127
291 289 288 290 290 286 282 280 279 276 274 271 266 263 262 267 266 262 253 248 243 238 239 237 235 229 222 214 209 199 191 192 197 200 202 196 192 188 176 166 158 158 161
293 292 293 292 290 287 290 290 282 279 275 274 269 264 262 260 259 259 258 247 236 233 231 232 241 233 217 214 213 208 204 202 195 189 197 204 192 186 181 178 174 168 157
293 292 293 291 290 290 289 286 282 277 275 274 271 266 263 265 260 255 257 249 236 232 230 227 228 231 218 204 203 203 204 206 204 197 197 203 199 189 188 185 175 151 113
294 292 292 291 293 294 293 290 286 283 281 276 271 268 265 267 262 256 252 241 235 236 234 230 223 222 219 202 193 195 203 213 213 205 202 203 199 190 180 170 166 166 159
288 288 290 290 290 292 290 287 285 281 280 281 278 272 265 268 266 257 248 231 231 232 232 229 223 216 215 202 194 191 201 209 200 199 207 213 204 196 186 187 182 178 162
287 292 295 294 292 288 286 285 287 287 286 285 284 281 273 269 270 263 249 223 222 223 224 222 222 218 216 208 197 195 201 192 186 184 185 187 182 188 193 196 193 186 173
295 299 300 299 299 303 296 295 293 289 290 290 288 290 284 277 271 265 250 229 215 213 218 216 217 217 216 208 201 206 200 185 172 174 175 181 185 193 198 198 200 199 189
302 302 302 303 300 296 294 296 298 293 288 288 289 288 291 291 284 273 259 239 223 214 217 211 212 214 210 206 205 202 194 182 172 177 187 191 195 194 186 185 192 189 172
301 302 303 305 305 304 298 291 290 290 289 287 285 284 287 293 294 298 280 244 221 217 219 215 211 204 187 187 190 192 187 184 180 184 191 193 179 173 180 176 180 175 171
302 301 303 301 300 304 300 291 285 276 268 268 274 269 275 285 281 274 252 225 208 206 187 174 160 157 168 171 172 174 177 177 183 179 180 183 179 182 186 176 171 171 179
305 305 303 302 303 302 304 308 296 284 286 271 258 256 257 257 278 277 255 237 219 197 178 176 180 178 181 183 180 180 182 188 188 184 182 184 185 190 190 181 175 179 180
296 299 300 299 301 302 304 305 310 312 303 294 279 267 252 260 267 271 258 239 216 178 183 194 194 193 193 190 187 185 189 193 186 184 188 189 185 186 184 185 185 184 179
298 300 301 297 298 297 297 296 293 299 308 307 292 271 262 257 252 253 245 199 205 195 203 203 205 201 198 197 197 196 195 188 185 190 191 190 185 181 181 185 188 185 178
301 300 301 300 298 295 294 295 295 295 293 293 295 292 269 259 254 247 230 216 215 217 215 212 209 204 204 204 203 200 195 192 190 190 195 195 189 182 184 188 189 183 174
301 306 311 305 302 303 301 300 301 303 305 304 299 286 260 233 262 247 225 227 227 227 222 220 219 212 207 207 205 200 197 197 195 194 193 192 189 186 186 184 185 183 181
301 308 313 312 305 301 301 300 302 305 305 302 296 286 250 247 255 254 242 231 230 229 226 219 216 211 207 199 196 196 196 199 197 193 188 188 187 187 185 180 182 181 178
298 300 302 303 303 302 302 299 301 304 306 304 301 299 276 265 270 269 258 245 234 228 223 219 215 210 204 199 196 194 195 195 193 187 185 184 185 184 180 177 176 175 174
300 302 304 304 304 305 310 310 310 309 310 309 310 307 298 284 281 288 288 275 254 236 226 220 218 215 209 202 194 189 190 193 190 184 182 179 178 179 175 175 175 171 172
297 299 303 309 313 315 318 318 315 311 311 316 318 315 307 297 300 308 314 316 307 281 238 218 214 208 199 190 184 183 185 185 178 180 177 174 174 174 172 171 171 170 171
299 303 309 314 317 319 321 324 325 320 318 321 329 331 327 315 314 318 320 321 324 331 339 168 214 202 189 181 174 169 171 172 172 169 169 169 167 166 167 167 166 163 163
309 315 318 321 324 325 325 328 329 325 326 333 340 346 345 334 329 328 328 336 344 7 27 51 82 103 124 135 140 147 153 159 163 162 159 157 161 164 162 162 160 162 162
Height
1492 1490 1487 1484 1482 1479 1476 1474 1472 1469 1467 1465 1464 1462 1461 1460 1459 1459 1459 1459 1459 1460 1460 1461 1461 1462 1462 1463 1464 1465 1467 1470 1472 1474 1476 1480 1483 1486 1490 1493 1496 1498 1501
1488 1485 1482 1479 1476 1473 1470 1468 1466 1463 1461 1459 1457 1455 1454 1453 1452 1452 1451 1452 1452 1453 1454 1455 1456 1457 1457 1458 1459 1460 1462 1465 1467 1469 1472 1475 1479 1482 1486 1489 1492 1495 1497
1483 1480 1476 1473 1470 1467 1465 1462 1460 1457 1455 1452 1450 1448 1447 1446 1445 1444 1444 1444 1444 1445 1446 1448 1449 1451 1452 1453 1454 1456 1458 1460 1462 1464 1467 1470 1474 1477 1481 1485 1488 1491 1494
1478 1475 1471 1468 1465 1462 1459 1456 1453 1451 1448 1445 1443 1441 1440 1438 1437 1436 1436 1436 1436 1437 1438 1440 1442 1444 1446 1448 1449 1451 1453 1455 1457 1459 1462 1465 1469 1472 1476 1479 1483 1486 1490
1473 1470 1466 1463 1460 1456 1453 1450 1447 1444 1441 1438 1436 1434 1432 1430 1429 1428 1428 1427 1428 1428 1430 1431 1434 1436 1439 1442 1444 1446 1448 1449 1451 1454 1457 1459 1462 1466 1470 1474 1478 1482 1486
1468 1465 1461 1458 1454 1451 1447 1443 1440 1437 1434 1431 1428 1426 1424 1422 1421 1420 1420 1419 1419 1420 1421 1423 1425 1428 1431 1434 1437 1440 1442 1444 1447 1449 1451 1454 1457 1461 1465 1469 1473 1477 1481
1464 1460 1456 1452 1448 1444 1441 1437 1433 1430 1427 1424 1421 1418 1416 1414 1413 1412 1411 1411 1411 1412 1413 1415 1417 1420 1423 1427 1430 1434 1437 1439 1442 1444 1446 1449 1452 1456 1460 1464 1467 1472 1476
1459 1455 1451 1447 1442 1438 1434 1431 1427 1424 1420 1417 1414 1411 1409 1406 1405 1404 1403 1402 1402 1403 1404 1406 1409 1412 1416 1420 1424 1427 1430 1433 1436 1439 1442 1444 1448 1451 1455 1459 1463 1468 1474
1454 1450 1446 1441 1437 1433 1429 1425 1421 1418 1414 1411 1407 1404 1401 1399 1398 1396 1395 1394 1394 1395 1396 1398 1401 1404 1409 1413 1417 1420 1424 1427 1431 1434 1437 1440 1443 1446 1450 1454 1458 1463 1467
1450 1445 1441 1436 1432 1428 1424 1420 1416 1412 1408 1405 1401 1398 1395 1393 1391 1389 1388 1387 1387 1388 1389 1391 1394 1397 1402 1406 1410 1414 1418 1422 1426 1429 1432 1435 1438 1441 1444 1448 1452 1456 1460
1445 1441 1436 1432 1427 1423 1419 1415 1411 1407 1403 1399 1396 1392 1390 1387 1385 1383 1382 1381 1381 1382 1383 1385 1388 1391 1395 1399 1404 1408 1412 1417 1421 1424 1427 1430 1434 1437 1440 1444 1448 1452 1455
1441 1436 1432 1427 1423 1419 1415 1410 1406 1402 1398 1394 1391 1387 1385 1382 1380 1378 1377 1376 1376 1377 1378 1380 1383 1386 1390 1394 1398 1403 1408 1412 1416 1419 1422 1426 1429 1432 1436 1440 1444 1447 1452
1437 1432 1428 1424 1420 1415 1411 1407 1402 1398 1394 1390 1386 1383 1380 1377 1375 1373 1372 1372 1372 1372 1374 1376 1379 1382 1385 1389 1393 1399 1403 1407 1411 1415 1418 1422 1425 1429 1433 1436 1439 1443 1447
1433 1429 1424 1420 1416 1412 1407 1403 1399 1394 1390 1386 1382 1379 1376 1373 1371 1369 1368 1368 1368 1369 1370 1372 1375 1378 1382 1386 1390 1394 1399 1403 1407 1411 1415 1418 1422 1425 1428 1431 1435 1438 1443
1430 1426 1421 1417 1413 1408 1404 1400 1396 1391 1387 1383 1379 1375 1372 1369 1368 1366 1365 1365 1365 1366 1367 1370 1372 1375 1379 1382 1387 1391 1395 1400 1404 1407 1411 1415 1417 1420 1424 1428 1431 1434 1438
1427 1422 1418 1414 1410 1405 1401 1396 1393 1389 1384 1380 1376 1373 1369 1367 1365 1364 1363 1362 1363 1364 1365 1367 1370 1373 1376 1379 1383 1387 1391 1396 1400 1404 1407 1410 1414 1417 1421 1424 1427 1430 1434
1424 1420 1415 1411 1407 1403 1398 1394 1389 1386 1382 1378 1374 1370 1367 1365 1363 1362 1361 1361 1361 1362 1363 1365 1368 1371 1374 1377 1381 1385 1388 1392 1396 1400 1403 1407 1410 1413 1416 1420 1423 1426 1430
1422 1417 1413 1409 1405 1401 1396 1392 1388 1383 1379 1375 1372 1368 1365 1363 1361 1360 1359 1359 1359 1360 1361 1363 1366 1368 1371 1374 1378 1381 1385 1388 1392 1395 1399 1402 1405 1409 1412 1415 1419 1422 1426
1419 1415 1411 1407 1403 1399 1395 1391 1387 1382 1378 1373 1369 1366 1363 1361 1359 1358 1357 1357 1357 1358 1359 1361 1363 1366 1368 1371 1375 1378 1381 1384 1387 1391 1394 1397 1401 1404 1408 1411 1415 1418 1422
1417 1413 1409 1405 1401 1397 1393 1389 1385 1381 1376 1372 1368 1365 1362 1360 1358 1356 1355 1354 1354 1355 1356 1358 1360 1362 1365 1368 1371 1374 1377 1380 1383 1386 1389 1393 1396 1400 1403 1407 1410 1414 1418
1414 1411 1407 1403 1399 1396 1392 1388 1384 1379 1375 1371 1367 1364 1361 1358 1356 1354 1353 1352 1351 1352 1353 1354 1356 1358 1361 1363 1366 1369 1372 1375 1378 1381 1385 1388 1392 1395 1399 1402 1406 1410 1415
1412 1409 1405 1402 1398 1395 1391 1387 1383 1378 1374 1370 1367 1363 1360 1357 1355 1353 1351 1350 1349 1349 1350 1351 1352 1354 1356 1359 1362 1365 1368 1371 1374 1377 1380 1384 1387 1390 1394 1398 1402 1406 1410
1410 1406 1404 1400 1397 1394 1390 1386 1382 1378 1374 1370 1366 1363 1360 1357 1354 1352 1349 1348 1347 1347 1347 1347 1348 1350 1352 1355 1358 1361 1364 1367 1370 1373 1376 1379 1382 1386 1389 1393 1397 1401 1406
1407 1404 1402 1399 1396 1393 1389 1386 1382 1378 1374 1370 1366 1363 1359 1357 1354 1352 1349 1348 1346 1345 1345 1345 1346 1347 1349 1352 1355 1358 1361 1364 1367 1369 1372 1375 1378 1382 1386 1389 1393 1398 1403
1405 1403 1400 1398 1395 1392 1388 1385 1382 1378 1374 1370 1367 1363 1360 1357 1354 1352 1350 1348 1346 1345 1344 1344 1344 1345 1347 1349 1352 1355 1358 1360 1363 1366 1369 1372 1375 1379 1382 1386 1391 1395 1401
1403 1401 1399 1397 1394 1391 1388 1385 1382 1378 1375 1372 1368 1365 1362 1359 1356 1353 1351 1349 1347 1346 1345 1344 1344 1345 1346 1348 1350 1352 1355 1357 1360 1363 1366 1369 1372 1376 1380 1384 1389 1394 1400